DW2147 Weather Reports


time (UTC)temp
C
wind
direction
speed
KPH
gust
KPH
rain 1hr
cm
rain 24hr
cm
rain mn
cm
humidity
%
barometer
mb
20260504045403 6 0 1.6 6.4 0.00 0.00 0.00 64 1014.4
20260504044245 6 0 1.6 6.4 0.00 0.00 0.00 65 1014.5
20260504043744 6 0 3.2 6.4 0.00 0.00 0.00 65 1014.5
20260504043246 6 0 3.2 6.4 0.00 0.00 0.00 65 1014.4
20260504042738 5 0 1.6 6.4 0.00 0.00 0.00 66 1014.4
20260504042238 5 0 1.6 6.4 0.00 0.00 0.00 66 1014.4
20260504042004 5 0 0.0 3.2 0.00 0.00 0.00 66 1014.4
20260504041232 5 0 0.0 0.0 0.00 0.00 0.00 66 1014.4
20260504040731 6 0 0.0 0.0 0.00 0.00 0.00 65 1014.4
20260504040229 6 0 0.0 0.0 0.00 0.00 0.00 65 1014.4
20260504035954 6 0 0.0 0.0 0.00 0.00 0.00 65 1014.4
20260504035222 6 0 0.0 0.0 0.00 0.00 0.00 65 1014.5
20260504034720 6 0 0.0 0.0 0.00 0.00 0.00 65 1014.5
20260504034220 6 0 0.0 0.0 0.00 0.00 0.00 64 1014.5
20260504033722 6 0 0.0 0.0 0.00 0.00 0.00 64 1014.5
20260504033217 6 0 0.0 0.0 0.00 0.00 0.00 64 1014.5
20260504032716 6 0 0.0 0.0 0.00 0.00 0.00 64 1014.4
20260504032216 6 0 0.0 0.0 0.00 0.00 0.00 64 1014.5
20260504031717 6 0 0.0 0.0 0.00 0.00 0.00 63 1014.5
20260504031216 6 0 0.0 0.0 0.00 0.00 0.00 63 1014.6
20260504030718 6 0 0.0 0.0 0.00 0.00 0.00 63 1014.8
20260504030213 7 0 0.0 0.0 0.00 0.00 0.00 62 1014.6
20260504025713 7 0 0.0 0.0 0.00 0.00 0.00 62 1014.6
20260504025213 7 0 0.0 0.0 0.00 0.00 0.00 62 1014.6
20260504024714 7 0 0.0 0.0 0.00 0.00 0.00 61 1014.6
20260504024213 7 0 0.0 0.0 0.00 0.00 0.00 61 1014.8
20260504023945 7 0 0.0 0.0 0.00 0.00 0.00 60 1014.8
20260504023208 7 0 0.0 0.0 0.00 0.00 0.00 61 1014.6
20260504022708 8 0 0.0 0.0 0.00 0.00 0.00 61 1014.6
20260504022213 8 0 0.0 0.0 0.00 0.00 0.00 60 1014.5
20260504022208 8 0 0.0 0.0 0.00 0.00 0.00 60 1014.5
20260504021209 8 0 0.0 0.0 0.00 0.00 0.00 60 1014.5
20260504020710 8 0 0.0 0.0 0.00 0.00 0.00 59 1014.5
20260504020204 8 0 0.0 0.0 0.00 0.00 0.00 59 1014.4
20260504015705 8 224 0.0 0.0 0.00 0.00 0.00 58 1014.5
20260504015440 9 224 0.0 0.0 0.00 0.00 0.00 57 1014.8
20260504015204 9 224 0.0 0.0 0.00 0.00 0.00 57 1014.8
20260504014202 9 224 0.0 0.0 0.00 0.00 0.00 56 1014.9
20260504013703 9 224 0.0 4.8 0.00 0.00 0.00 55 1014.9
20260504013205 10 224 1.6 4.8 0.00 0.00 0.00 55 1014.8
20260504012702 10 0 0.0 4.8 0.00 0.00 0.00 55 1014.9
20260504012202 10 227 0.0 0.0 0.00 0.00 0.00 54 1014.9
20260504011700 10 227 0.0 0.0 0.00 0.00 0.00 53 1014.9
20260504011159 10 227 0.0 0.0 0.00 0.00 0.00 52 1014.9
20260504010930 11 227 0.0 3.2 0.00 0.00 0.00 51 1014.8
20260504010156 11 227 0.0 3.2 0.00 0.00 0.00 50 1014.8
20260504005655 11 0 0.0 0.0 0.00 0.00 0.00 48 1014.9
20260504005155 11 227 0.0 0.0 0.00 0.00 0.00 47 1015.0
20260504004655 11 227 0.0 0.0 0.00 0.00 0.00 46 1015.2
20260504004425 12 227 0.0 0.0 0.00 0.00 0.00 45 1015.0
20260504003652 12 227 0.0 0.0 0.00 0.00 0.00 44 1015.1
20260504003423 12 226 0.0 0.0 0.00 0.00 0.00 43 1015.2
20260504002651 12 227 0.0 0.0 0.00 0.00 0.00 42 1015.1
20260504002151 12 226 0.0 4.8 0.00 0.00 0.00 42 1015.1
20260504001651 12 0 0.0 4.8 0.00 0.00 0.00 42 1015.2
20260504001422 13 0 0.0 3.2 0.00 0.00 0.00 41 1015.2
20260504000921 13 225 1.6 4.8 0.00 0.00 0.00 40 1015.1
20260504000146 13 0 1.6 4.8 0.00 0.00 0.00 40 1015.2
20260503235646 13 225 3.2 4.8 0.00 0.00 0.00 39 1015.2
20260503235146 13 225 3.2 8.0 0.00 0.00 0.00 39 1015.4
20260503234647 13 0 3.2 8.0 0.00 0.00 0.00 39 1015.2
20260503234146 13 269 3.2 6.4 0.00 0.00 0.00 39 1015.3
20260503233645 13 0 3.2 6.4 0.00 0.00 0.00 39 1015.3
20260503233145 13 0 3.2 8.0 0.00 0.00 0.00 38 1015.3
20260503232645 13 0 3.2 8.0 0.00 0.00 0.00 37 1015.5
20260503232143 13 227 3.2 11.3 0.00 0.00 0.00 37 1015.4
20260503231644 13 216 3.2 11.3 0.00 0.00 0.00 38 1015.4
20260503231143 13 248 4.8 16.1 0.00 0.00 0.00 37 1015.5
20260503230645 13 0 6.4 16.1 0.00 0.00 0.00 38 1015.5
20260503230415 14 0 4.8 14.5 0.00 0.00 0.00 37 1015.5
20260503225642 14 0 4.8 14.5 0.00 0.00 0.00 37 1015.6
20260503225142 14 0 6.4 17.7 0.00 0.00 0.00 38 1015.6
20260503224639 14 0 8.0 20.9 0.00 0.00 0.00 36 1015.6
20260503224412 14 0 6.4 20.9 0.00 0.00 0.00 37 1015.5
20260503223638 14 0 6.4 14.5 0.00 0.00 0.00 36 1015.6
20260503223409 14 0 6.4 17.7 0.00 0.00 0.00 39 1015.7
20260503222637 14 0 6.4 17.7 0.00 0.00 0.00 37 1015.7
20260503222135 14 0 3.2 17.7 0.00 0.00 0.00 37 1015.7
20260503221904 14 229 1.6 9.7 0.00 0.00 0.00 38 1015.7
20260503221132 14 292 4.8 12.9 0.00 0.00 0.00 36 1015.6
20260503220631 14 277 4.8 16.1 0.00 0.00 0.00 37 1015.7
20260503220128 15 0 8.0 19.3 0.00 0.00 0.00 36 1015.7
20260503215628 15 0 11.3 25.7 0.00 0.00 0.00 36 1015.7
20260503215126 15 0 9.7 25.7 0.00 0.00 0.00 36 1015.8
20260503214626 15 0 8.0 17.7 0.00 0.00 0.00 36 1015.7
20260503214125 15 0 9.7 20.9 0.00 0.00 0.00 35 1015.7
20260503213626 15 0 8.0 22.5 0.00 0.00 0.00 35 1015.8
20260503213126 15 0 6.4 22.5 0.00 0.00 0.00 37 1015.7
20260503212857 15 244 6.4 16.1 0.00 0.00 0.00 35 1015.7
20260503212125 15 0 6.4 16.1 0.00 0.00 0.00 36 1015.8
20260503211856 15 30 4.8 16.1 0.00 0.00 0.00 35 1015.7
20260503211129 15 0 4.8 16.1 0.00 0.00 0.00 35 1015.8
20260503210626 15 165 6.4 17.7 0.00 0.00 0.00 34 1015.9
20260503210125 16 0 6.4 17.7 0.00 0.00 0.00 34 1015.8
20260503205627 15 238 6.4 19.3 0.00 0.00 0.00 38 1015.9
20260503205356 15 0 8.0 19.3 0.00 0.00 0.00 33 1015.8
20260503204621 15 0 8.0 19.3 0.00 0.00 0.00 35 1016.0
20260503204120 15 0 8.0 22.5 0.00 0.00 0.00 34 1016.0
20260503203618 16 0 9.7 22.5 0.00 0.00 0.00 35 1016.0
20260503203120 16 128 9.7 20.9 0.00 0.00 0.00 33 1016.0
20260503202617 16 0 9.7 24.1 0.00 0.00 0.00 38 1016.2
20260503202119 16 0 9.7 24.1 0.00 0.00 0.00 35 1016.3
20260503201618 16 0 8.0 20.9 0.00 0.00 0.00 34 1016.2
20260503201118 16 0 9.7 22.5 0.00 0.00 0.00 34 1016.3
20260503200618 16 0 8.0 22.5 0.00 0.00 0.00 35 1016.4
20260503200116 15 0 6.4 16.1 0.00 0.00 0.00 38 1016.4
20260503195614 15 0 4.8 14.5 0.00 0.00 0.00 40 1016.5
20260503195116 15 0 6.4 17.7 0.00 0.00 0.00 37 1016.6
20260503194614 15 0 9.7 22.5 0.00 0.00 0.00 35 1016.7
20260503194114 15 190 6.4 22.5 0.00 0.00 0.00 38 1016.7
20260503193612 15 270 8.0 19.3 0.00 0.00 0.00 38 1016.9
20260503193111 15 0 8.0 19.3 0.00 0.00 0.00 33 1017.0
20260503192614 16 0 6.4 17.7 0.00 0.00 0.00 36 1017.1
20260503192112 16 305 6.4 17.7 0.00 0.00 0.00 39 1017.1
20260503191609 15 0 6.4 19.3 0.00 0.00 0.00 38 1017.1
20260503191341 15 0 8.0 19.3 0.00 0.00 0.00 38 1017.2
20260503190609 15 0 8.0 25.7 0.00 0.00 0.00 41 1017.3
20260503190106 14 275 8.0 25.7 0.00 0.00 0.00 37 1017.3
20260503185604 14 0 8.0 19.3 0.00 0.00 0.00 36 1017.2
20260503185102 14 0 8.0 19.3 0.00 0.00 0.00 37 1017.3
20260503184559 15 0 8.0 19.3 0.00 0.00 0.00 34 1017.5
20260503184059 15 0 6.4 14.5 0.00 0.00 0.00 37 1017.5
20260503183601 15 0 6.4 19.3 0.00 0.00 0.00 36 1017.6
20260503183100 15 0 9.7 19.3 0.00 0.00 0.00 40 1017.6
20260503182557 15 0 9.7 19.3 0.00 0.00 0.00 38 1017.7
20260503182056 14 0 6.4 19.3 0.00 0.00 0.00 41 1017.7
20260503181555 14 0 6.4 20.9 0.00 0.00 0.00 37 1017.7
20260503181055 13 0 9.7 24.1 0.00 0.00 0.00 40 1017.8
20260503180553 13 0 9.7 24.1 0.00 0.00 0.00 36 1017.7
20260503180051 13 0 11.3 24.1 0.00 0.00 0.00 38 1017.7
20260503175548 13 0 9.7 24.1 0.00 0.00 0.00 37 1017.8
20260503175049 13 0 9.7 24.1 0.00 0.00 0.00 37 1018.1
20260503174548 13 161 8.0 24.1 0.00 0.00 0.00 36 1018.2
20260503174048 13 324 6.4 17.7 0.00 0.00 0.00 37 1018.1
20260503173543 13 0 8.0 22.5 0.00 0.00 0.00 40 1018.3
20260503173044 13 0 9.7 22.5 0.00 0.00 0.00 40 1018.3
20260503172543 13 24 8.0 20.9 0.00 0.00 0.00 39 1018.3
20260503172045 13 0 4.8 17.7 0.00 0.00 0.00 36 1018.2
20260503171543 13 284 6.4 17.7 0.00 0.00 0.00 39 1018.2
20260503171044 13 0 8.0 19.3 0.00 0.00 0.00 38 1018.4
20260503170542 13 242 11.3 27.4 0.00 0.00 0.00 39 1018.4
20260503150531 10 0 6.4 19.3 0.00 0.00 0.00 46 1019.1
20260503131252 6 0 8.0 17.7 0.00 0.00 0.00 63 1018.9
20260503130524 6 182 8.0 17.7 0.00 0.00 0.00 63 1018.9
20260503110504 1 0 3.2 8.0 0.00 0.00 0.00 71 1017.9
20260503090440 2 206 1.6 4.8 0.00 0.00 0.00 71 1016.9
20260503081424 2 292 0.0 3.2 0.00 0.00 0.00 71 1016.8
20260503080920 2 0 0.0 3.2 0.00 0.00 0.00 71 1016.8
20260503080418 2 291 0.0 3.2 0.00 0.00 0.00 71 1016.7
20260503080150 2 0 0.0 3.2 0.00 0.00 0.00 71 1016.6
20260503072915 2 0 0.0 1.6 0.00 0.00 0.00 72 1016.5
20260503072647 2 0 0.0 1.6 0.00 0.00 0.00 72 1016.5
20260503071914 2 293 1.6 4.8 0.00 0.00 0.00 72 1016.5
20260503071415 2 292 1.6 4.8 0.00 0.00 0.00 72 1016.5
20260503070915 2 0 0.0 3.2 0.00 0.00 0.00 72 1016.4
20260503070411 2 286 0.0 0.0 0.00 0.00 0.00 72 1016.6
20260503054858 4 0 1.6 4.8 0.00 0.00 0.00 71 1016.4
20260503054356 4 0 1.6 4.8 0.00 0.00 0.00 71 1016.4
20260503053857 4 0 1.6 4.8 0.00 0.00 0.00 70 1016.5
20260503053356 4 0 1.6 6.4 0.00 0.00 0.00 70 1016.5
20260503052857 4 0 1.6 6.4 0.00 0.00 0.00 70 1016.4
20260503052356 4 0 1.6 8.0 0.00 0.00 0.00 70 1016.4
20260503051857 4 0 1.6 8.0 0.00 0.00 0.00 70 1016.5
20260503051354 4 0 1.6 4.8 0.00 0.00 0.00 70 1016.4
20260503050854 4 0 1.6 4.8 0.00 0.00 0.00 70 1016.5
20260503050355 4 0 1.6 4.8 0.00 0.00 0.00 70 1016.5
20260503050125 4 0 0.0 3.2 0.00 0.00 0.00 69 1016.5